Powrót do katalogu

STARLINK-5372

AktywnyŁącznośćVLEO
NORAD 54838·PAYLOAD·🇺🇸 United States

Wystrzelony Dec 28, 2022 z Cape Canaveral Space Force Station

Loading…

Następne Przeloty (najbliższe 24 godziny)

TLE

ŚwieżeSource: CelesTrak SupGP

Epoka: Sep 14, 2026, 21:23 UTC

1 54838C 22177U   26257.89145833 -.00023133  00000+0 -83819-3 0  2572
2 54838  43.0020 144.3514 0001055 250.7328 226.2219 15.27578539    16

Śledź STARLINK-5372 w czasie rzeczywistym z AllMySat

Download on the App Store